Location: ????????
(55.7667°N, 37.4833°E)
Time: 03:16:06
(UTC+00:00)

USA 234 - Pass Details

Date: 19 May 2025
Orbit: 1097 x 1111 km, 123.0° (Epoch: 13 June)

Event Time Altitude Azimuth Distance (km) Brightness Sun altitude
Rises 20:42:24 0° 74° (ENE) 3,920 6.2 -13.7°
Reaches altitude 10° 20:44:53 10° 74° (ENE) 2,963 5.6 -13.8°
Maximum altitude 20:51:27 89° 345° (NNW) 1,111 3.3 -13.9°
Drops below altitude 10° 20:58:02 10° 258° (WSW) 2,969 5.5 -14.0°
Sets 21:00:31 0° 258° (WSW) 3,928 6.1 -14.1°
